TimeCDT,TemperatureF,Dew PointF,Humidity,Sea Level PressureIn,VisibilityMPH,Wind Direction,Wind SpeedMPH,Gust SpeedMPH,PrecipitationIn,Events,Conditions,WindDirDegrees,DateUTC
12:51 AM,73.0,50.0,44,29.83,10.0,South,6.9,-,N/A,,Clear,180,2014-04-12 05:51:00
1:51 AM,71.1,50.0,47,29.82,10.0,South,4.6,-,N/A,,Clear,190,2014-04-12 06:51:00
2:51 AM,69.1,50.0,51,29.81,10.0,South,10.4,-,N/A,,Clear,180,2014-04-12 07:51:00
3:51 AM,68.0,52.0,56,29.80,10.0,South,12.7,-,N/A,,Clear,190,2014-04-12 08:51:00
4:51 AM,68.0,55.0,63,29.79,10.0,South,11.5,-,N/A,,Clear,180,2014-04-12 09:51:00
5:51 AM,66.0,55.9,70,29.80,10.0,SSW,10.4,-,N/A,,Clear,200,2014-04-12 10:51:00
6:51 AM,64.9,57.0,75,29.82,10.0,South,9.2,-,N/A,,Clear,190,2014-04-12 11:51:00
7:51 AM,64.0,57.0,78,29.83,10.0,SSW,6.9,-,N/A,,Clear,200,2014-04-12 12:51:00
8:51 AM,66.0,57.9,75,29.85,10.0,SSW,15.0,-,N/A,,Clear,200,2014-04-12 13:51:00
9:51 AM,69.1,59.0,70,29.85,10.0,South,13.8,-,N/A,,Clear,190,2014-04-12 14:51:00
10:51 AM,75.0,57.9,55,29.84,10.0,South,13.8,-,N/A,,Clear,190,2014-04-12 15:51:00
11:51 AM,80.1,57.9,47,29.83,10.0,South,16.1,23.0,N/A,,Clear,190,2014-04-12 16:51:00
12:51 PM,84.0,55.9,38,29.80,10.0,SW,13.8,-,N/A,,Clear,230,2014-04-12 17:51:00
1:51 PM,88.0,54.0,31,29.75,10.0,SSW,12.7,23.0,N/A,,Clear,200,2014-04-12 18:51:00
2:51 PM,90.0,50.0,25,29.73,10.0,South,13.8,21.9,N/A,,Clear,190,2014-04-12 19:51:00
3:51 PM,90.0,48.0,24,29.71,10.0,SSW,13.8,-,N/A,,Clear,200,2014-04-12 20:51:00
4:51 PM,88.0,51.1,28,29.68,10.0,South,17.3,24.2,N/A,,Clear,180,2014-04-12 21:51:00
5:51 PM,86.0,51.1,30,29.67,10.0,South,13.8,-,N/A,,Clear,190,2014-04-12 22:51:00
6:51 PM,84.0,54.0,35,29.67,10.0,South,12.7,21.9,N/A,,Clear,180,2014-04-12 23:51:00
7:51 PM,82.9,55.9,39,29.68,10.0,South,12.7,21.9,N/A,,Clear,180,2014-04-13 00:51:00
8:51 PM,81.0,57.0,44,29.69,10.0,South,15.0,24.2,N/A,,Clear,180,2014-04-13 01:51:00
9:51 PM,80.1,57.0,45,29.70,10.0,South,19.6,29.9,N/A,,Clear,180,2014-04-13 02:51:00
10:51 PM,77.0,57.0,50,29.70,10.0,South,19.6,27.6,N/A,,Clear,180,2014-04-13 03:51:00
11:51 PM,77.0,57.0,50,29.69,10.0,South,21.9,33.4,N/A,,Clear,190,2014-04-13 04:51:00